Location: Anjeux
(47.8815°N, 6.2076°E)
Time: 15:35:11
(UTC+00:00)

PCSat - Visible Passes

Search period start: 27 November 2021 00:00
Search period end: 07 December 2021 00:00
Orbit: 785 x 794 km, 67.1° (Epoch: 26 November)

Date Brightness Start Highest point End Pass type
(mag) Time Alt. Az. Time Alt. Az. Time Alt. Az.
27 Nov 11.4 17:10:54 10° N 17:13:43 14° NNE 17:14:47 13° NE visible
27 Nov 11.4 18:53:27 10° NNW 18:55:29 22° NNW 18:55:29 22° NNW visible
28 Nov 11.5 16:40:01 10° N 16:42:16 12° NNE 16:44:30 10° NE visible
28 Nov 10.9 18:22:28 10° NNW 18:25:27 26° N 18:25:27 26° N visible
28 Nov 12.3 20:05:45 10° NW 20:06:10 12° NW 20:06:10 12° NW visible
29 Nov 10.7 17:51:31 10° NNW 17:55:28 26° NNE 17:55:28 26° NNE visible
29 Nov 11.8 19:34:36 10° NW 19:36:11 20° NW 19:36:11 20° NW visible
30 Nov 10.8 17:20:35 10° NNW 17:24:50 23° NE 17:25:35 22° NE visible
30 Nov 11.0 19:03:30 10° NW 19:06:18 31° NNW 19:06:18 31° NNW visible
01 Dec 11.0 16:49:38 10° NNW 16:53:29 19° NNE 16:55:47 15° ENE visible
01 Dec 10.1 18:32:26 10° NNW 18:36:31 50° N 18:36:31 50° N visible
01 Dec 12.4 20:16:44 10° WNW 20:17:15 12° WNW 20:17:15 12° WNW visible
02 Dec 11.2 16:18:43 10° NNW 16:22:07 16° NNE 16:25:30 10° ENE visible
02 Dec 9.6 18:01:24 10° NNW 18:06:45 54° NE 18:06:52 54° NE visible
02 Dec 11.8 19:45:16 10° NW 19:47:37 21° WNW 19:47:37 21° WNW visible
03 Dec 9.9 17:30:24 10° NNW 17:35:34 42° NE 17:37:26 32° E visible
03 Dec 10.9 19:13:57 10° NW 19:18:11 36° W 19:18:11 36° W visible
04 Dec 10.2 16:59:25 10° NNW 17:04:22 34° NE 17:08:16 15° ESE visible
04 Dec 10.3 18:42:43 10° NW 18:47:58 51° WSW 18:49:04 43° SSW visible
05 Dec 10.5 16:28:27 10° NNW 16:33:06 28° NE 16:37:44 10° E visible
05 Dec 9.8 18:11:33 10° NW 18:16:57 68° WSW 18:20:27 22° SSE visible
05 Dec 12.5 19:58:13 10° W 19:59:18 11° W 20:00:23 10° WSW visible
06 Dec 9.5 17:40:27 10° NW 17:45:55 88° WSW 17:51:20 10° SSE visible
06 Dec 12.3 19:25:31 10° WNW 19:28:30 15° WSW 19:31:29 10° SW visible
